Location: Cedar Falls
(42.5280°N, 92.4450°W)
Time: 11:09:32
(UTC-05:00)

NOSS 3-1 (C) - Visible Passes

Search period start: 27 May 2016 00:00
Search period end: 06 June 2016 00:00
Orbit: 854 x 1354 km, 63.4° (Epoch: 15 May)

Date Brightness Start Highest point End Pass type
(mag) Time Alt. Az. Time Alt. Az. Time Alt. Az.
27 May 5.9 04:11:03 10° ESE 04:12:33 11° ESE 04:14:03 10° E visible
29 May 5.1 04:27:11 10° SSE 04:32:02 28° ESE 04:37:15 10° NE visible
30 May 5.6 03:43:52 10° SE 03:47:15 16° ESE 03:50:46 10° ENE visible
31 May 3.8 04:46:06 10° SSW 04:51:51 62° ESE 04:58:14 10° NE visible
01 Jun 4.5 04:01:33 10° S 04:06:50 37° ESE 04:12:37 10° NE visible
02 Jun 5.2 03:17:52 11° SSE 03:21:59 22° ESE 03:26:35 10° ENE visible
03 Jun 5.6 02:35:17 10° ESE 02:37:16 12° ESE 02:39:18 10° E visible
03 Jun 3.5 04:21:34 13° SSW 04:26:48 80° SE 04:33:21 10° NE visible
04 Jun 4.0 03:37:48 20° S 03:41:42 49° ESE 03:47:52 10° NE visible
05 Jun 4.7 02:54:00 20° SSE 02:56:46 29° ESE 03:02:06 10° NE visible
05 Jun 3.9 04:41:24 10° WSW 04:47:12 52° NW 04:53:41 10° NNE visible
